Location: ????????
(60.4333°N, 46.4710°E)
Time: 03:20:38
(UTC+00:00)

Cosmos 2360 Rocket - Pass Details

Date: 25 November 2020
Orbit: 834 x 845 km, 71.0° (Epoch: 19 January)

Event Time Altitude Azimuth Distance (km) Brightness Sun altitude
Rises 13:47:36 0° 225° (SW) 3,378 6.7 -11.7°
Reaches altitude 10° 13:50:02 10° 227° (SW) 2,447 5.8 -12.0°
Maximum altitude 13:55:40 77° 313° (NW) 864 2.3 -12.7°
Enters shadow 14:00:38 14° 39° (NE) 2,205 3.9 -13.2°
